Flag for U.S.A. Weather past 2 weeks in Denver, Colorado, U.S.A.

Now
53 °F

Clear.


Feels Like: 51 °F
Forecast: 50 / 78 °F
Wind: 8 mph from Southwest

Location: Buckley Air Force Base

Current Time: Aug 29, 2014 at 4:46:53 AM

Latest Report: Aug 29, 2014 at 3:58 AM


Visibility: 10 mi

Pressure: 29.96 "Hg

Humidity: 74%

Dew point: 45 °F

Location of DenverLocation

Historic Weather in Denver — Graph

°F

Denver temperature yesterday

Maximum temperature yesterday: 71 °F (at 11:58 AM)
Minimum temperature yesterday: 52 °F (at 5:58 AM)
Average temperature yesterday: 59 °F

Past Weeks' High & Low Weather Summary

 TemperatureHumidityPressure
High90 °F (Aug 19, 2:58 PM)100% (Aug 26, 3:58 AM)30.23 "Hg (Aug 26, 3:58 AM)
Low52 °F (Aug 25, 6:58 AM)17% (Aug 16, 4:58 PM)29.67 "Hg (Aug 19, 2:58 PM)
Average67 °F59%29.92 "Hg
* Reported Aug 14 2:58 AM — Aug 29 2:58 AM, Denver, Weather by CustomWeather, © 2014

Note: Actual official high and low records may vary slightly from our data, if they occured in-between our weather recording intervals... More about our weather records

Advertising

Denver weather history for previous 24 hours

 ConditionsComfort  
Time TempWeatherWind HumidityBarometerVisibility
2:58 AM
Aug 29
53 °FClear.8 mph77%29.95 "Hg10 mi
1:58 AM53 °FClear.8 mph77%29.95 "Hg10 mi
12:58 AM53 °FClear.9 mph76%29.96 "Hg10 mi
11:58 PM
Aug 28
54 °FClear.8 mph73%29.96 "Hg10 mi
10:58 PM54 °FPassing clouds.8 mph77%29.99 "Hg10 mi
9:58 PM55 °FPassing clouds.8 mph78%29.99 "Hg10 mi
8:58 PM56 °FPassing clouds.8 mph81%30.01 "Hg10 mi
7:58 PM58 °FPartly sunny.6 mph75%30.01 "Hg10 mi
6:58 PM61 °FPartly sunny.6 mph63%30.03 "Hg10 mi
5:58 PM61 °FPartly sunny.6 mph65%30.05 "Hg10 mi
4:58 PM60 °FPartly sunny.10 mph75%30.06 "Hg10 mi
3:58 PM60 °FLight rain. Partly sunny.13 mph70%30.07 "Hg10 mi
2:58 PM63 °FPartly sunny.15 mph61%30.03 "Hg10 mi
2:04 PM66 °FLight rain. Partly sunny.24 mph52%30.19 "Hg10 mi
1:58 PM67 °FPartly sunny.23 mph53%30.01 "Hg10 mi
12:58 PM69 °FPartly sunny.18 mph55%29.99 "Hg10 mi
11:58 AM71 °FPartly sunny.8 mph41%29.97 "Hg10 mi
10:58 AM68 °FPartly sunny.5 mph42%30.00 "Hg10 mi
9:58 AM64 °FPartly sunny.5 mph58%30.01 "Hg10 mi
8:58 AM61 °FScattered clouds.10 mph64%29.98 "Hg10 mi
7:58 AM55 °FScattered clouds.8 mph82%29.99 "Hg10 mi
6:58 AM52 °FPassing clouds.7 mph91%30.01 "Hg10 mi
5:58 AM52 °FPassing clouds.9 mph93%29.98 "Hg10 mi
4:58 AM52 °FPassing clouds.9 mph94%29.97 "Hg10 mi
Weather by CustomWeather, © 2014

See weather overviewHow to use our weather pages